Regional Weather Roundup
Issued by NWS Kansas City/Pleasant Hill, MO

Home | Current Version | Previous Version | Text Only | Print | Product List | Glossary On
Versions: 1 2 3 4 5 6 7 8 9 10 11 12 13 14 15 16 17 18 19 20 21 22 23 24 25 26 27 28 29 30 31 32 33 34 35 36 37 38 39 40 41 42 43 44 45 46 47 48 49 50
000
ASUS43 KEAX 230610
RWREAX

WEATHER ROUNDUP FOR EASTERN KANSAS AND NORTHWEST MISSOURI
NATIONAL WEATHER SERVICE KANSAS CITY/PLEASANT HILL MO
1200 AM CST THU FEB 23 2017

KSZ040-057-103>105-MOZ028-029-037-043-230700-
...KANSAS CITY METROPOLITAN AREA...

CITY           SKY/WX    TMP DP  RH WIND       PRES   REMARKS
K.C. INTL      CLEAR     52  38  58 NE10      29.72R
6HR MIN TEMP:  51; 6HR MAX TEMP:  70;

K.C. DOWNTOWN  CLEAR     49  37  63 NW3       29.71S
6HR MIN TEMP:  48; 6HR MAX TEMP:  75;

LEES SUMMIT    CLEAR     59  37  44 NE7       29.71S
6HR MIN TEMP:  58; 6HR MAX TEMP:  73;

OLATHE - IXD   CLEAR     47  36  65 N3        29.72S
6HR MIN TEMP:  46; 6HR MAX TEMP:  69;

OLATHE - OJC   PTCLDY    57  38  48 NE7       29.71S
6HR MIN TEMP:  53; 6HR MAX TEMP:  72;

LAWRENCE       PTCLDY    43  36  76 CALM      29.73R

$$

MOZ001>008-011>017-020>025-030>033-038>040-044>046-053-054-230700-
...NORTHERN AND CENTRAL MISSOURI...

CITY           SKY/WX    TMP DP  RH WIND       PRES   REMARKS
ST. JOSEPH     CLEAR     49  39  68 N8        29.75R
6HR MIN TEMP:  49; 6HR MAX TEMP:  66;

WARRENSBURG    CLEAR     57  39  51 N7        29.69R
WHITEMAN AFB   PTCLDY    54  44  68 SW5       29.69R
6HR MIN TEMP:  52; 6HR MAX TEMP:  64;

CLINTON        CLEAR     48  41  76 S5        29.70S
SEDALIA        CLEAR     60  53  77 SW8       29.71S
6HR MIN TEMP:  59; 6HR MAX TEMP:  71;

WARSAW         NOT AVBL
CHILLICOTHE      N/A     55  40  56 N7        29.73S
6HR MIN TEMP:  51; 6HR MAX TEMP:  71;

KIRKSVILLE     CLEAR     49  39  68 N5        29.73S
6HR MIN TEMP:  45; 6HR MAX TEMP:  67;


$$

MOZ041-047>049-056>058-063>065-088>090-097-230700-
...EASTERN AND SOUTHERN MISSOURI...

CITY           SKY/WX    TMP DP  RH WIND       PRES   REMARKS
ST. LOUIS INTL MOCLDY    61  53  75 SW10      29.73S
6HR MIN TEMP:  61; 6HR MAX TEMP:  70;

SPIRIT OF STL  PTCLDY    59  54  83 SW7       29.72S
COLUMBIA       CLEAR     55  52  89 S7        29.71S
JEFFERSON CITY CLEAR     53  50  89 E5        29.71S
ROLLA          CLEAR     55  53  93 S13       29.72F
OSAGE BEACH    CLEAR     57  54  89 S7        29.73S
SPRINGFIELD    CLEAR     57  54  89 S12       29.73S
BRANSON        CLEAR     55  55 100 CALM      29.76F
JOPLIN         PTCLDY    59  51  75 S8        29.69F
WEST PLAINS    CLEAR     53  51  93 SW5       29.79F

$$

IAZ060-094-KSZ022-034>040-054-083-096-NEZ052-066-093-230700-
...KANSAS...SOUTHEAST NEBRASKA AND IOWA...

CITY           SKY/WX    TMP DP  RH WIND       PRES   REMARKS
TOPEKA         PTCLDY    52  40  63 E3        29.73R
6HR MIN TEMP:  47; 6HR MAX TEMP:  69;

MANHATTAN      CLEAR     54  37  52 NE9       29.70F
EMPORIA        CLOUDY    50  41  71 N7        29.68S
CHANUTE        PTCLDY    48  40  73 NW3       29.68F
WICHITA        PTCLDY    54  45  71 E6        29.64F
OMAHA          CLEAR     43  36  76 N9        29.79F
LINCOLN        CLEAR     46  38  73 NE13      29.78S
FALLS CITY     PTCLDY    52  39  61 NE13      29.74S
LAMONI         CLEAR     50  41  71 N12       29.76R
DES MOINES     CLEAR     49  43  80 N9        29.78R

$$




USA.gov is the U.S. government's official web portal to all federal, state and local government web resources and services.